Showing default

TURKSAT 6A, 60233

Orbit data source: Space-Track

TURKSAT 6A, 60233 is a payload satellite owned by Turksat (TR) in GEO that was launched on Mon, 08 Jul 2024 UTC via an FALCON 9 launch vehicle from the Air Force Eastern Test Range (AFETR). Payload-class satellites include a variety of spacecraft equipped with specific instruments for various scientific and technological missions. These include communications satellites like Starlink; space stations such as the ISS; scientific satellites like the Hubble; Earth observation satellites from companies like Planet Labs, Umbra, and HawkEye 360; GPS; miniature CubeSats for education and research; and military/defense satellites.

Not visible in the next 10 days
Identifier
60233, 2024-127A
Orbit
GEO
Last TLE update
9 hours ago
Origin
Manufacturer
TUSAS
Mission
Operational Commercial Communications
Bus & Motor
TURKSAT 6, Unknown motor
Mass
4,250 kg wet, ~1,700 kg dry
Launch date (UTC)
2024-07-08 (10 months ago)
Launch vehicle
FALCON 9
Launch site
Air Force Eastern Test Range (AFETR)
Object type
Payload
Rocket body
Debris
Shape & HBR
Box + 2 Pan, 30 m
Radar Cross Section
39.706 m², Large (>1 m²)

Expand to show TLE details & history

TLE from 9 hours ago
0 TURKSAT 6A
1 60233U 24127A   25128.89050689  .00000151  00000-0  00000-0 0  9990
2 60233   0.0388 176.6043 0000393 291.9467 120.9898  1.00271540  2969
Epoch: 2025-05-08T21:22Z
Definitive object data (Epoch: 2025-05-08T21:22:19.795Z)
Latitude
0.0172°
Longitude
42.00458°
Altitude
35,787.007 km
Speed
3.075 km/s
True Right ascension
15h 18m 09s
True Declination
0° 01' 02"
Sunlit
Object was in daylight at TLE epoch
Visualization TLE readout
Latitude
0.01204°
Longitude
-179.2196°
Altitude
35,786.389 km
Speed
3.075 km/s
Apparent Right ascension
00h 46m 25s
Apparent Declination
-5° 00' 29"
Sunlit
Object is in daylight
Visualization observer readout
Local Sidereal Time
14:44:49
Azimuth
45.185° ENE
Elevation
-46.085°
Doppler factor
1
Orbital elements
Apogee altitude
35,789.391 km
Perigee altitude
35,786.077 km
Semi-major axis
42,165.871 km
Eccentricity
0.0000393
Inclination
0.0388°
RAAN
176.6043°
Arg. of periapsis
291.9467°
True anomaly
120.99366°
Mean anomaly
120.9898°
Eccentric anomaly
120.99173°
Mean motion
0.25067 °/min
BSTAR
Unknown
Orbital period
1436.15 mins
Loading historical data...
60233 neighbors
Loading maneuver chart data...
Loading SW <> Apogee altitude chart data...
Loading historical data...
Loading historical data...
Loading historical data...
Loading historical data...
Loading historical data...
Loading historical data...
Loading historical data...
Other satellites on launch #127 in the year 2024 (2024-07-08 UTC)

TURKSAT 6A Visibility forecast

Observer location: undefined°, undefined°

TURKSAT 6A is not visible in the next 10 days
Span
Click to sort rows by Start time (UTC) header in descending order
Start Az.
Max El. time (UTC)
Max El. Az.
Max El.
End time (UTC)
End Az.
|